Weather History for Antigo, WI

Change the Weather History Date:

Saturday, January 12, 2013

  Actual Average Record
Temperature  
Mean Temperature 26 °F -  
Max Temperature 40 °F 19 °F 41 °F (1961)
Min Temperature 13 °F -1 °F -25 °F (1974)
Degree Days  
Heating Degree Days 38    
Moisture  
Dew Point 24 °F    
Average Humidity 84    
Maximum Humidity 100    
Minimum Humidity 75    
Precipitation  
Precipitation 0.00 in - - ()
Sea Level Pressure  
Sea Level Pressure 29.69 in    
Wind  
Wind Speed 15 mph (WSW)    
Max Wind Speed 29 mph    
Max Gust Speed 38 mph    
Visibility 9 miles    
Events Fog , Snow    
Averages and records for this station are not official NWS values.
T = Trace of Precipitation, MM = Missing Value Source: NWS Daily Summary

Daily Weather History Graph

Daily Weather History Graph

Search for Another Location

Airport:

Trip Planner

Search our weather history database for the weather conditions in past years. The results will help you decide how hot, cold, wet, or windy it might be!

Date:

Astronomy

Jan. 12, 2013 Rise Set
Actual Time 7:32 AM CST 4:37 PM CST
Civil Twilight 6:59 AM CST 5:10 PM CST
Nautical Twilight 6:23 AM CST 5:46 PM CST
Astronomical Twilight 5:47 AM CST 6:22 PM CST
Moon 7:47 AM CST (1/12) 6:11 PM CST (1/12)
Length of Visible Light 10h 10m
Length of Day
9h 04m
New Moon, 1% of the Moon is Illuminated
Jan 12
New Moon
Jan 18
First Quarter
Jan 26
Full
Feb 3
Last Quarter
Feb 10
New

Hourly Weather History & Observations

Time (CST) Temp. Windchill Dew Point Humidity Pressure Visibility Wind Dir Wind Speed Gust Speed Precip Events Conditions
12:15 AM 38.5 °F 31.6 °F 38.5 °F 100% 29.49 in 0.2 mi South 10.4 mph - N/A Fog Fog
12:35 AM 39.2 °F 32.5 °F 39.2 °F 100% 29.49 in 1.2 mi SSW 10.4 mph - N/A   Overcast
12:55 AM 39.6 °F 32.5 °F 39.6 °F 100% 29.49 in 2.5 mi SSW 11.5 mph 16.1 mph N/A   Overcast
1:15 AM 39.6 °F 33.0 °F 39.6 °F 100% 29.49 in 3.0 mi SSW 10.4 mph - N/A   Overcast
1:35 AM 39.4 °F 33.8 °F 39.4 °F 100% 29.49 in 2.5 mi South 8.1 mph - N/A   Overcast
1:55 AM 39.2 °F 32.5 °F 39.2 °F 100% 29.48 in 2.5 mi South 10.4 mph - N/A   Overcast
2:15 AM 39.2 °F 32.0 °F 39.2 °F 100% 29.48 in 2.0 mi South 11.5 mph - N/A   Overcast
2:35 AM 39.6 °F 32.1 °F 39.6 °F 100% 29.48 in 2.5 mi SSW 12.7 mph 19.6 mph N/A   Overcast
2:55 AM 39.2 °F 31.6 °F 39.2 °F 100% 29.47 in 3.0 mi South 12.7 mph - N/A   Overcast
3:15 AM 39.7 °F 31.9 °F 39.7 °F 100% 29.46 in 4.0 mi South 13.8 mph 18.4 mph N/A   Overcast
3:35 AM 39.9 °F 32.5 °F 39.9 °F 100% 29.46 in 7.0 mi SSW 12.7 mph - N/A   Overcast
3:55 AM 39.6 °F 32.5 °F 39.6 °F 100% 29.46 in 7.0 mi South 11.5 mph 17.3 mph N/A   Overcast
4:15 AM 40.1 °F 32.4 °F 40.1 °F 100% 29.45 in 10.0 mi SSW 13.8 mph - N/A   Overcast
4:35 AM 40.5 °F 32.8 °F 40.1 °F 99% 29.46 in 10.0 mi SSW 13.8 mph - N/A   Overcast
4:55 AM 40.6 °F 33.0 °F 39.9 °F 97% 29.46 in 10.0 mi SSW 13.8 mph 21.9 mph N/A   Overcast
5:15 AM 40.3 °F 31.9 °F 39.2 °F 96% 29.46 in 10.0 mi SW 16.1 mph 21.9 mph N/A   Overcast
5:35 AM 40.3 °F 31.9 °F 39.2 °F 96% 29.47 in 10.0 mi SW 16.1 mph 21.9 mph N/A   Overcast
5:55 AM 40.5 °F 32.8 °F 38.3 °F 92% 29.48 in 10.0 mi SW 13.8 mph 26.5 mph N/A   Overcast
6:15 AM 40.1 °F 29.9 °F 37.0 °F 89% 29.49 in 10.0 mi WSW 23.0 mph 32.2 mph N/A   Overcast
6:35 AM 39.2 °F 30.2 °F 35.8 °F 88% 29.50 in 10.0 mi WSW 17.3 mph 27.6 mph N/A   Overcast
6:55 AM 38.5 °F 27.5 °F 34.5 °F 86% 29.52 in 10.0 mi WSW 24.2 mph 27.6 mph N/A   Overcast
7:15 AM 37.2 °F 24.9 °F 32.2 °F 82% 29.53 in 10.0 mi WSW 28.8 mph 38.0 mph N/A   Overcast
7:35 AM 36.5 °F 25.2 °F 30.9 °F 80% 29.55 in 10.0 mi WSW 23.0 mph 32.2 mph N/A   Overcast
7:55 AM 35.6 °F 23.0 °F 30.2 °F 81% 29.56 in 10.0 mi WSW 27.6 mph 34.5 mph N/A   Overcast
8:15 AM 34.7 °F 23.7 °F 29.1 °F 80% 29.58 in 10.0 mi WSW 19.6 mph 27.6 mph N/A   Overcast
8:35 AM 33.3 °F 20.3 °F 27.5 °F 79% 29.60 in 10.0 mi WSW 25.3 mph 36.8 mph N/A   Overcast
8:55 AM 32.0 °F 18.1 °F 27.1 °F 82% 29.62 in 10.0 mi WSW 27.6 mph 36.8 mph N/A   Overcast
9:15 AM 31.8 °F 21.0 °F 27.1 °F 83% 29.62 in 10.0 mi WSW 16.1 mph 32.2 mph N/A   Overcast
9:35 AM 30.9 °F 17.2 °F 25.5 °F 80% 29.64 in 10.0 mi WSW 25.3 mph 33.4 mph N/A   Overcast
9:55 AM 29.7 °F 15.2 °F 24.8 °F 82% 29.65 in 10.0 mi WSW 26.5 mph 33.4 mph N/A   Overcast
10:15 AM 29.7 °F 16.1 °F 24.1 °F 80% 29.66 in 10.0 mi WSW 23.0 mph 33.4 mph N/A   Overcast
10:35 AM 29.1 °F 15.7 °F 23.9 °F 81% 29.68 in 10.0 mi WSW 21.9 mph 28.8 mph N/A   Overcast
10:55 AM 28.4 °F 14.7 °F 23.9 °F 83% 29.69 in 10.0 mi WSW 21.9 mph 27.6 mph N/A   Overcast
11:15 AM 27.5 °F 13.5 °F 23.7 °F 86% 29.70 in 10.0 mi WSW 21.9 mph 29.9 mph N/A   Overcast
11:55 AM 26.8 °F 13.3 °F 22.8 °F 85% 29.71 in 10.0 mi WSW 19.6 mph 31.1 mph N/A   Overcast
12:15 PM 26.6 °F 13.8 °F 22.1 °F 83% 29.72 in 10.0 mi WSW 17.3 mph 26.5 mph N/A   Overcast
12:35 PM 25.7 °F 10.8 °F 21.6 °F 84% 29.71 in 10.0 mi West 23.0 mph 26.5 mph N/A   Overcast
12:55 PM 25.5 °F 10.6 °F 20.8 °F 82% 29.74 in 10.0 mi WSW 23.0 mph 28.8 mph N/A   Overcast
1:35 PM 24.4 °F 9.9 °F 19.4 °F 81% 29.76 in 10.0 mi WSW 20.7 mph 25.3 mph N/A   Overcast
1:55 PM 24.1 °F 10.6 °F 18.9 °F 80% 29.76 in 10.0 mi West 17.3 mph 24.2 mph N/A   Overcast
2:15 PM 23.7 °F 8.9 °F 17.6 °F 77% 29.78 in 10.0 mi WSW 20.7 mph 26.5 mph N/A   Overcast
2:35 PM 23.5 °F 10.8 °F 17.6 °F 78% 29.79 in 10.0 mi West 15.0 mph 23.0 mph N/A   Overcast
2:55 PM 23.5 °F 11.3 °F 17.2 °F 77% 29.81 in 10.0 mi West 13.8 mph 20.7 mph N/A   Overcast
3:15 PM 22.8 °F 8.5 °F 16.7 °F 77% 29.82 in 10.0 mi WSW 18.4 mph 23.0 mph N/A   Overcast
3:35 PM 22.5 °F 8.9 °F 16.2 °F 77% 29.81 in 10.0 mi WSW 16.1 mph 24.2 mph N/A   Overcast
3:55 PM 21.6 °F 8.2 °F 14.7 °F 75% 29.81 in 10.0 mi West 15.0 mph - N/A   Overcast
4:15 PM 21.0 °F 7.1 °F 14.4 °F 75% 29.81 in 10.0 mi West 16.1 mph 20.7 mph N/A   Mostly Cloudy
4:35 PM 20.5 °F 6.9 °F 14.2 °F 77% 29.83 in 10.0 mi West 15.0 mph - N/A   Mostly Cloudy
4:55 PM 20.1 °F 5.0 °F 13.8 °F 77% 29.86 in 10.0 mi WSW 18.4 mph 21.9 mph N/A   Overcast
5:15 PM 19.9 °F 5.7 °F 13.8 °F 77% 29.87 in 10.0 mi WSW 16.1 mph 20.7 mph N/A   Overcast
5:35 PM 18.9 °F 4.8 °F 12.7 °F 77% 29.88 in 10.0 mi West 15.0 mph - N/A   Overcast
5:55 PM 18.5 °F 3.8 °F 12.2 °F 76% 29.88 in 10.0 mi WSW 16.1 mph - N/A   Overcast
6:15 PM 18.5 °F 4.3 °F 12.7 °F 78% 29.86 in 10.0 mi West 15.0 mph - N/A   Overcast
6:35 PM 18.3 °F 5.2 °F 12.2 °F 77% 29.87 in 10.0 mi West 12.7 mph 16.1 mph N/A   Overcast
7:15 PM 17.6 °F 5.0 °F 12.0 °F 79% 29.88 in 10.0 mi West 11.5 mph 17.3 mph N/A Snow Light Snow
7:35 PM 17.1 °F 3.6 °F 11.3 °F 78% 29.86 in 10.0 mi West 12.7 mph - N/A   Overcast
7:55 PM 16.3 °F 4.1 °F 10.2 °F 77% 29.88 in 10.0 mi WNW 10.4 mph 18.4 mph N/A   Overcast
8:15 PM 16.2 °F 3.2 °F 9.7 °F 76% 29.90 in 10.0 mi West 11.5 mph 19.6 mph N/A Snow Light Snow
8:35 PM 15.6 °F 2.5 °F 9.5 °F 77% 29.90 in 10.0 mi West 11.5 mph 16.1 mph N/A   Overcast
8:55 PM 15.1 °F 0.5 °F 9.0 °F 77% 29.89 in 10.0 mi West 13.8 mph 17.3 mph N/A   Overcast
9:15 PM 14.7 °F 0.7 °F 8.4 °F 76% 29.91 in 10.0 mi West 12.7 mph - N/A   Mostly Cloudy
9:35 PM 14.5 °F 0.5 °F 8.1 °F 75% 29.91 in 10.0 mi West 12.7 mph 18.4 mph N/A   Mostly Cloudy
9:55 PM 14.0 °F 0.5 °F 8.1 °F 77% 29.90 in 10.0 mi West 11.5 mph - N/A   Overcast
10:15 PM 14.2 °F 1.4 °F 8.4 °F 78% 29.88 in 10.0 mi WNW 10.4 mph - N/A   Overcast
10:35 PM 14.0 °F 2.0 °F 8.6 °F 79% 29.91 in 10.0 mi West 9.2 mph - N/A   Overcast
10:55 PM 14.4 °F 3.3 °F 8.6 °F 78% 29.93 in 10.0 mi West 8.1 mph - N/A   Overcast
11:15 PM 14.0 °F 3.9 °F 7.9 °F 77% 29.92 in 10.0 mi WNW 6.9 mph - N/A   Overcast
11:35 PM 13.8 °F 3.7 °F 7.7 °F 77% 29.88 in 10.0 mi WNW 6.9 mph - N/A   Overcast
11:55 PM 13.6 °F 3.5 °F 7.7 °F 77% 29.90 in 10.0 mi West 6.9 mph - N/A   Overcast